#timestamp,LO_Frequency,Hit,StdDev 
1458338415.6,286046997.0,N
1458338435.4,286047001.1,N
1458338455.2,286046998.4,N
1458338475.1,286046999.6,N
1458338476.0,286046999.6,N
1458338495.8,286046999.0,N
1458338515.6,286047001.8,N
1458338535.5,286046998.2,N
1458338555.3,286046998.8,N
1458338575.1,286046998.3,N
1458338595.9,286047000.9,N
1458338615.7,286046996.9,N
1458338635.5,286046999.2,N
1458338655.4,286046999.1,N
1458338675.2,286046997.2,N
1458338695.0,286046994.5,N
1458338695.9,286046994.5,N
1458338715.8,286046994.5,N
1458338735.6,286046994.8,N
1458338755.4,286046993.8,N
1458338775.2,286046993.4,N
1458338795.1,286046997.9,N
1458338796.0,286046997.9,N
1458338815.8,286046996.9,N
1458338835.6,286046995.8,N
1458338855.5,286046995.1,N
1458338875.3,286046995.3,N
1458338895.1,286046997.2,N
1458338915.9,286046995.3,N
1458338935.7,286046997.6,N
1458338955.5,286046997.6,N
1458338975.4,286046998.5,N
1458338995.2,286046999.6,N
1458339015.0,286046994.2,N
1458339015.9,286046994.2,N
1458339035.8,286046995.7,N
1458339055.6,286046994.5,N
1458339075.4,286046991.0,Y
1458339095.3,286046994.3,P
1458339115.1,286046993.7,P
1458339116.0,286046993.7,P
1458339135.8,286046991.8,Y
1458339155.7,286046998.5,P
1458339175.5,286046999.7,N
1458339195.3,286047000.9,N
1458339215.2,286047000.3,N
1458339235.9,286046999.7,N
1458339255.7,286047000.0,N
1458339275.5,286047000.8,N
1458339295.4,286047000.8,N
1458339315.2,286046998.9,N
1458339335.0,286047001.0,N
1458339335.9,286047001.0,N
1458339355.8,286046995.1,N
1458339375.6,286046997.6,N
1458339395.4,286046998.2,N
1458339415.3,286047000.3,N
1458339435.1,286047005.6,N
1458339436.0,286047005.6,N
1458339455.8,286047005.2,N
1458339475.7,286047003.8,N
1458339495.5,286047003.2,N
1458339515.3,286047001.4,N
1458339535.2,286047002.1,N
1458339555.9,286047003.5,N
1458339575.7,286047005.8,N
1458339595.5,286047004.3,N
1458339615.4,286047002.6,N
1458339635.2,286047003.0,N
1458339655.0,286047005.7,N
1458339655.9,286047005.7,N
1458339675.8,286047004.1,N
1458339695.6,286047006.0,N
1458339715.4,286047003.6,N
1458339735.3,286047006.1,N
1458339755.1,286047007.2,N
1458339756.0,286047007.2,N
1458339775.8,286047005.2,N
1458339795.7,286047008.5,N
1458339815.5,286047008.5,N
1458339835.3,286047010.7,Y
1458339855.2,286047006.4,P
1458339875.9,286047009.3,P
1458339895.7,286047015.0,P
1458339915.6,286047015.6,Y
1458339935.4,286047007.6,P
1458339955.2,286047003.0,P
1458339975.1,286047006.3,N
1458339976.0,286047006.3,N
1458339995.8,286047009.9,Y
1458340015.6,286047007.5,P
1458340035.5,286047005.6,P
1458340055.3,286047009.1,P
1458340075.1,286047008.7,Y
1458340095.9,286047001.1,P
1458340115.7,286047000.5,N
1458340135.5,286046998.2,N
1458340155.4,286047000.9,N
1458340175.2,286047000.8,N
1458340195.0,286047001.0,N
1458340195.9,286047001.0,N
1458340215.8,286047001.1,N
1458340235.6,286047001.5,N
1458340255.4,286046998.1,N
1458340275.2,286046997.7,N
1458340295.1,286047000.7,N
1458340296.0,286047000.7,N
1458340315.8,286046994.9,N
1458340335.6,286046995.5,N
1458340355.5,286046993.4,N
1458340375.3,286046991.9,N
1458340395.1,286046993.1,N
1458340415.9,286046992.0,N
1458340435.7,286046991.5,N
1458340455.5,286046991.4,N
1458340475.4,286046989.2,N
1458340495.2,286046988.4,N
1458340515.0,286046990.7,N
1458340515.9,286046990.7,N
1458340535.8,286046990.9,N
1458340555.6,286046992.8,N
1458340575.4,286046993.0,N
1458340595.2,286046989.7,N
1458340615.1,286046987.1,N
1458340616.0,286046987.1,N
1458340635.8,286046988.2,N
1458340655.6,286046987.1,N
1458340675.5,286046987.4,N
1458340695.3,286046991.4,N
1458340715.1,286046990.9,N
1458340735.9,286046993.0,N
1458340755.7,286046990.7,N
1458340775.5,286046991.9,N
1458340795.4,286046996.3,N
1458340815.2,286046995.9,N
1458340835.0,286046997.9,N
1458340835.9,286046997.9,N
1458340855.8,286046998.0,N
1458340875.6,286046995.6,N
1458340895.4,286046996.2,N
1458340915.3,286046994.6,N
1458340935.1,286046992.4,N
1458340936.0,286046992.4,N
1458340955.8,286046992.4,N
1458340975.6,286046993.2,N
1458340995.5,286046990.5,N
1458341015.3,286046991.3,N
1458341035.2,286046988.5,Y
1458341055.9,286046996.5,P
1458341075.7,286046998.6,N
1458341095.5,286046998.8,N
1458341115.4,286046996.5,N
1458341135.2,286046999.6,N
1458341155.0,286047002.5,N
1458341155.9,286047002.5,N
1458341175.8,286046999.7,N
1458341195.6,286047000.0,N
1458341215.4,286047002.8,N
1458341235.3,286047002.8,N
1458341255.1,286046998.9,N
1458341256.0,286046998.9,N
1458341275.8,286046998.8,N
1458341295.7,286046997.1,N
1458341315.5,286047000.3,N
1458341335.3,286046998.5,N
1458341355.2,286046999.4,N
1458341375.9,286046995.6,N
1458341395.7,286046993.8,N
1458341415.5,286046993.3,N
1458341435.4,286046994.5,N
1458341455.2,286046993.1,N
1458341475.0,286046991.7,N
1458341475.9,286046991.7,N
1458341495.8,286046995.7,N
1458341515.6,286046994.4,N
1458341535.4,286046990.1,N
1458341555.3,286046991.2,N
1458341575.1,286046989.6,N
1458341576.0,286046989.6,N
1458341595.8,286046987.4,Y
1458341615.7,286046987.9,P
1458341635.5,286046986.0,P
1458341655.3,286046984.1,P
1458341675.2,286046985.1,Y
1458341695.0,286046995.6,P
1458341695.9,286046995.6,N
1458341715.7,286046997.3,N
1458341735.6,286046995.7,N
1458341755.4,286046998.0,N
1458341775.2,286047002.3,N
1458341795.1,286047002.1,N
1458341796.0,286047002.1,N
1458341815.8,286047004.1,N
1458341835.6,286047002.0,N
1458341855.5,286047002.8,N
1458341875.3,286047000.6,N
1458341895.1,286047002.8,N
1458341915.9,286047001.8,N
1458341935.7,286047003.9,N
1458341955.5,286047003.5,N
1458341975.3,286047002.4,N
1458341995.2,286047003.7,N
